Regional Weather Roundup
Issued by NWS

Home | Current Version | Previous Version | Graphics & Text | Print | Product List | Glossary On
Versions: 1 2 3 4 5 6 7 8 9 10 11 12 13 14 15 16 17 18 19 20 21 22 23 24 25 26 27 28 29
000
ASUS45 KBOU 251807
RWRCO

WEATHER ROUNDUP FOR COLORADO
NATIONAL WEATHER SERVICE DENVER/BOULDER CO
1200 PM MDT TUE APR 25 2017

NOTE: "FAIR" INDICATES FEW OR NO CLOUDS BELOW 12000 FEET WITH NO
SIGNIFICANT WEATHER AND/OR OBSTRUCTIONS TO VISIBILITY.

COZ001>005-013-030-031-251900-
...NORTHWEST COLORADO...

CITY           SKY/WX    TMP DP  RH WIND       PRES   REMARKS
CRAIG          CLOUDY    40  31  70 SW8       29.71R
HAYDEN         CLOUDY    43  25  49 W10       29.70S
MEEKER         LGT RAIN  39  34  82 N15       29.72R
MOUNT WERNER   NOT AVBL
STEAMBOAT SPGS CLOUDY    39  29  65 W8        29.70S
WALDEN           N/A     36  21  55 SW6       29.69S
$$

COZ006>008-011-251900-
...WEST CENTRAL VALLEYS...

CITY           SKY/WX    TMP DP  RH WIND       PRES   REMARKS
GRAND JUNCTION PTSUNNY   57  26  30 W10G18    29.65F
MONTROSE       PTSUNNY   45  34  65 E6        29.69F
EAGLE          PTSUNNY   43  27  52 CALM      29.70F
RIFLE          FAIR      52  27  38 CALM      29.66F
DELTA          FAIR      55  29  37 CALM      29.66F
NUCLA          CLOUDY    46  32  57 NW6       29.73S
$$

COZ017>023-064>068-251900-
...SOUTHWEST COLORADO...

CITY           SKY/WX    TMP DP  RH WIND       PRES   REMARKS
DURANGO        PTSUNNY   54  27  35 SW20G29   29.66F
CORTEZ         CLOUDY    49  35  58 S14       29.70F
PAGOSA SPRINGS LGT RAIN  39  38  94 S12       29.70F
TELLURIDE      PTSUNNY   40  21  46 NW13G18   29.72F
WOLF CREEK PAS SNOW      27  27 100 S17G28    29.78F VSB 1/4 WCI  14
$$

COZ009-010-012-014-032>034-037-058>063-251900-
...CENTRAL COLORADO...

CITY           SKY/WX    TMP DP  RH WIND       PRES   REMARKS
ASPEN          FLURRIES  35  30  82 VRB3      29.69S
BUENA VISTA    FAIR      49  12  22 W9G18     29.61F
COPPER MTN     CLOUDY    27  19  74 NW8       29.73R WCI  18
BERTHOUD PASS  CLOUDY    16   5  62 N6        29.73R WCI   7
COTTONWOOD PAS PTSUNNY   45  18  33 SW6       29.67S
GUNNISON       LGT SNOW  34  30  86 W8        29.69R FOG     WCI  27
KREMMLING      CLOUDY    46  23  39 NW6       29.70F
LEADVILLE      PTSUNNY   32  21  64 NW9       29.68F WCI  24
MONARCH PASS   CLOUDY    23  21  93 SW22G29   29.82F WCI   8
SALIDA         FAIR      53  19  26 SW13G18   29.68F
SUNLIGHT       PTSUNNY   28  23  80 W7        29.76F WCI  21
WILKERSON PASS FAIR      32  12  43 W6G16     29.72S WCI  26
$$

COZ069>075-251900-
...SAN LUIS VALLEY/SANGRE DE CRISTO MOUNTAINS...

CITY           SKY/WX    TMP DP  RH WIND       PRES   REMARKS
ALAMOSA        CLOUDY    42  33  70 N12       29.65F
LA VETA PASS   CLOUDY    37  27  65 MISG      29.80S
SAGUACHE       CLOUDY    45  23  42 W10       29.65F
$$

COZ035-036-038>040-251900-
...NORTHERN COLORADO FRONT RANGE...

CITY           SKY/WX    TMP DP  RH WIND       PRES   REMARKS
DENVER INTL AP PTSUNNY   56  25  30 VRB5G16   29.59R
DMNS CITY PARK   N/A     57  25  29 NE10      29.57S
AURORA         PTSUNNY   56  21  25 NE7G20    29.58S
FRONT RANGE AP PTSUNNY   57  27  30 N6        29.60R
ERIE MUNI ARPT PTSUNNY   55  33  43 NE10G18   29.59F
BOULDER MUN AP PTSUNNY   54  36  50 E8        29.59S
CENTENNIAL     PTSUNNY   55  21  26 N10G18    29.58F
BROOMFIELD     PTSUNNY   54  30  40 NE10G23   29.60R
FORT COLLINS   FAIR      55  37  50 E13       29.59S
LONGMONT       PTSUNNY   57  38  48 E13G18    29.61S
$$

COZ041-046-047-076>085-087-088-251900-
...PIKES PEAK/PALMER DIVIDE AND SOUTHERN FOOTHILLS...

CITY           SKY/WX    TMP DP  RH WIND       PRES   REMARKS
COLO. SPRINGS  PTSUNNY   53  31  42 S10       29.60F
A. F. ACADEMY  PTSUNNY   52  31  45 S16       29.58F
SCHRIEVER AFB  FAIR      53  28  38 SE5G18    29.59F
ELLICOTT       NOT AVBL
FALCON         FAIR      53  28  38 S10G16    29.61F
FORT CARSON    PTSUNNY   53  34  48 SE8       29.58F
LIMON          PTSUNNY   54  33  45 N9G16     29.59S
MONUMENT HILL  FAIR      48  23  37 NE8       29.61F
TRINIDAD       FAIR      50  37  61 VRB6      29.59F
$$

COZ042>045-048>051-090-091-251900-
...NORTHEAST COLORADO...

CITY           SKY/WX    TMP DP  RH WIND       PRES   REMARKS
GREELEY ARPT   FAIR      55  30  38 NE7       29.60S
AKRON          PTSUNNY   54  37  52 NW20      29.59S
BURLINGTON     NOT AVBL
WRAY           NOT AVBL
STERLING       FAIR      57  39  51 NE5       29.57F
HOLYOKE        FAIR      59  43  55 N9        29.57F
FORT MORGAN    PTSUNNY   59  29  31 W9G16     29.59F
$$

COZ086-089-092>099-251900-
...SOUTHEAST COLORADO...

CITY           SKY/WX    TMP DP  RH WIND       PRES   REMARKS
PUEBLO         CLOUDY    55  40  56 SE10      29.57F
LA JUNTA       PTSUNNY   53  41  63 E10       29.58F
LAMAR          PTSUNNY   57  40  52 E7        29.56S
SPRINGFIELD      N/A     52  41  66 NE8       29.58S
$$




USA.gov is the U.S. government's official web portal to all federal, state and local government web resources and services.